EW9963 Weather Reports


time (UTC)temp
C
wind
direction
speed
KPH
gust
KPH
rain 1hr
cm
rain 24hr
cm
rain mn
cm
humidity
%
barometer
mb
20260503184540 20 200 4.8 16.1 0.00 0.00 0.00 47 1018.5
20260503183053 20 243 3.2 12.9 0.00 0.00 0.00 46 1018.5
20260503181540 19 0 1.6 9.7 0.00 0.00 0.00 51 1018.8
20260503180044 18 294 1.6 8.0 0.00 0.00 0.00 50 1018.8
20260503174543 18 151 3.2 9.7 0.00 0.03 0.00 53 1019.1
20260503173039 18 130 3.2 9.7 0.00 0.03 0.00 46 1018.9
20260503171539 17 330 8.0 17.7 0.00 0.03 0.00 49 1019.1
20260503081544 7 0 0.0 0.0 0.00 1.47 0.00 91 1016.9
20260503071541 8 0 0.0 0.0 0.00 1.60 0.00 91 1016.2
20260503070106 8 0 0.0 0.0 0.00 1.60 0.00 90 1016.1
20260503054543 10 0 0.0 0.0 0.00 1.63 0.00 91 1016.0
20260503053040 10 0 0.0 0.0 0.00 1.63 0.00 91 1015.9
20260503051547 10 0 0.0 0.0 0.00 1.63 0.00 91 1015.9
20260503050045 10 0 0.0 0.0 0.00 1.63 0.00 91 1015.9
20260503044543 10 0 0.0 0.0 0.00 1.63 0.00 91 1015.7
20260503043044 10 0 0.0 0.0 0.00 1.63 0.00 90 1015.8
20260503041540 10 0 0.0 0.0 0.00 1.63 0.00 90 1015.8
20260503040041 10 0 0.0 0.0 0.00 1.63 0.00 90 1015.7
20260503034540 10 0 0.0 0.0 0.00 1.63 1.63 90 1015.8
20260503033048 10 0 0.0 0.0 0.00 1.63 1.63 90 1015.4
20260503031540 10 0 0.0 0.0 0.00 1.63 1.63 90 1015.2
20260503030040 10 0 0.0 0.0 0.00 1.63 1.63 90 1015.0
20260503024540 10 0 0.0 0.0 0.00 1.63 1.63 90 1014.6
20260503023040 10 0 0.0 0.0 0.00 1.63 1.63 90 1014.5
20260503021543 10 0 0.0 0.0 0.00 1.63 1.63 89 1014.3
20260503020042 10 0 0.0 0.0 0.00 1.63 1.63 89 1014.0
20260503014542 10 0 0.0 0.0 0.00 1.63 1.63 88 1013.8
20260503013050 10 0 0.0 0.0 0.00 1.63 1.63 87 1013.5
20260503011543 10 0 0.0 0.0 0.00 1.63 1.63 87 1013.5
20260503004607 11 0 0.0 0.0 0.00 1.63 1.63 86 1013.2
20260503003041 12 0 0.0 0.0 0.00 1.63 1.63 84 1013.1
20260503001541 13 0 0.0 0.0 0.00 1.63 1.63 83 1012.7
20260503000042 13 0 0.0 1.6 0.00 1.63 1.63 82 1012.4
20260502234541 13 0 0.0 3.2 0.00 1.63 1.63 81 1012.3
20260502233039 13 0 0.0 0.0 0.00 1.63 1.63 80 1012.4
20260502231541 13 0 0.0 1.6 0.00 1.63 1.63 80 1012.2
20260502230044 13 352 0.0 4.8 0.00 1.63 1.63 79 1012.0
20260502224540 13 344 1.6 8.0 0.00 1.63 1.63 80 1012.0
20260502223044 13 32 1.6 8.0 0.00 1.63 1.63 80 1012.2
20260502221538 13 346 3.2 9.7 0.00 1.63 1.63 80 1012.1
20260502220041 13 331 4.8 9.7 0.00 1.63 1.63 80 1011.8
20260502214552 13 38 0.0 9.7 0.00 1.63 1.63 82 1012.0
20260502213042 13 0 3.2 16.1 0.00 1.63 1.63 82 1011.8
20260502211541 12 355 3.2 14.5 0.00 1.63 1.63 84 1011.8
20260502210048 12 304 6.4 12.9 0.00 1.63 1.63 85 1011.6
20260502204539 12 360 6.4 16.1 0.00 1.63 1.63 84 1011.5
20260502203052 12 284 3.2 12.9 0.00 1.63 1.63 86 1011.8
20260502201547 12 351 4.8 12.9 0.00 1.63 1.63 87 1012.1
20260502200043 12 40 4.8 14.5 0.00 1.63 1.63 87 1011.9
20260502194541 12 355 1.6 9.7 0.00 1.63 1.63 86 1012.1
20260502193041 12 352 4.8 12.9 0.00 1.63 1.63 86 1012.1
20260502191541 12 0 3.2 16.1 0.00 1.63 1.63 84 1012.0
20260502190046 12 333 6.4 20.9 0.00 1.63 1.63 84 1011.9